Change the Weather History Date:

Thursday, March 13, 2014

  Actual Average Record
Temperature  
Mean Temperature 50 °F 44 °F  
Max Temperature 67 °F 54 °F 79 °F (2012)
Min Temperature 33 °F 33 °F 7 °F (1950)
Degree Days  
Heating Degree Days 15 21  
Month to date heating degree days 386 304  
Since 1 July heating degree days 4867 4197  
Cooling Degree Days 0 0  
Month to date cooling degree days 0 0  
Year to date cooling degree days 0 0  
Moisture  
Dew Point 22 °F    
Average Humidity 42    
Maximum Humidity 69    
Minimum Humidity 15    
Precipitation  
Precipitation 0.00 in 0.09 in 1.13 in (1961)
Month to date precipitation 0.33 1.11  
Year to date precipitation 0.82 3.80  
Sea Level Pressure  
Sea Level Pressure 30.00 in    
Wind  
Wind Speed 8 mph (SW)    
Max Wind Speed 20 mph    
Max Gust Speed 28 mph    
Visibility 10 miles    
Events      
T = Trace of Precipitation, MM = Missing Value Source: NWS Daily Summary

Daily Weather History Graph

Daily Weather History Graph

Search for Another Location

Airport or City:

Trip Planner

Search our weather history database for the weather conditions in past years. The results will help you decide how hot, cold, wet, or windy it might be!

Date:

Astronomy

Mar. 13, 2014 Rise Set
Actual Time 7:33 AM CDT 7:24 PM CDT
Civil Twilight 7:06 AM CDT 7:50 PM CDT
Nautical Twilight 6:35 AM CDT 8:21 PM CDT
Astronomical Twilight 6:04 AM CDT 8:52 PM CDT
Moon 4:51 PM CDT (3/13) 5:39 AM CDT (3/13)
Length of Visible Light 12h 43m
Length of Day
11h 50m
Waxing Gibbous, 91% of the Moon is Illuminated
Mar 13
Waxing Gibbous
Mar 16
Full
Mar 23
Last Quarter
Mar 30
New
Apr 7
First Quarter

Hourly Weather History & Observations

Time (CDT) Temp. Windchill Dew Point Humidity Pressure Visibility Wind Dir Wind Speed Gust Speed Precip Events Conditions
12:53 AM 37.0 °F 33.3 °F 23.0 °F 57% 30.13 in 10.0 mi SSW 4.6 mph - N/A   Clear
1:53 AM 36.0 °F 32.1 °F 23.0 °F 59% 30.12 in 10.0 mi SSW 4.6 mph - N/A   Clear
2:53 AM 34.0 °F 29.8 °F 24.1 °F 67% 30.11 in 10.0 mi SSW 4.6 mph - N/A   Clear
3:53 AM 35.1 °F 32.2 °F 21.9 °F 59% 30.08 in 10.0 mi SW 3.5 mph - N/A   Clear
4:53 AM 33.1 °F 27.7 °F 24.1 °F 70% 30.08 in 10.0 mi SSW 5.8 mph - N/A   Clear
5:53 AM 33.1 °F 28.7 °F 23.0 °F 66% 30.07 in 10.0 mi SW 4.6 mph - N/A   Clear
6:53 AM 35.1 °F 29.3 °F 23.0 °F 61% 30.07 in 10.0 mi WSW 6.9 mph - N/A   Clear
7:53 AM 34.0 °F 31.0 °F 23.0 °F 64% 30.09 in 10.0 mi WSW 3.5 mph - N/A   Clear
8:53 AM 37.9 °F 34.4 °F 24.1 °F 57% 30.10 in 10.0 mi WSW 4.6 mph - N/A   Clear
9:53 AM 43.0 °F 39.5 °F 25.0 °F 49% 30.10 in 10.0 mi West 5.8 mph - N/A   Clear
10:53 AM 50.0 °F - 26.1 °F 39% 30.09 in 10.0 mi Variable 5.8 mph - N/A   Clear
11:53 AM 55.9 °F - 28.0 °F 34% 30.06 in 10.0 mi WSW 6.9 mph - N/A   Clear
12:53 PM 60.1 °F - 26.1 °F 27% 30.04 in 10.0 mi WSW 12.7 mph - N/A   Clear
1:53 PM 63.0 °F - 23.0 °F 22% 30.01 in 10.0 mi SW 13.8 mph 19.6 mph N/A   Clear
2:53 PM 64.9 °F - 24.1 °F 21% 29.97 in 10.0 mi West 10.4 mph 20.7 mph N/A   Clear
3:53 PM 66.0 °F - 23.0 °F 20% 29.94 in 10.0 mi West 10.4 mph 19.6 mph N/A   Clear
4:53 PM 66.0 °F - 19.9 °F 17% 29.91 in 10.0 mi WSW 11.5 mph 23.0 mph N/A   Clear
5:53 PM 66.0 °F - 18.0 °F 16% 29.89 in 10.0 mi SW 13.8 mph 21.9 mph N/A   Clear
6:53 PM 64.0 °F - 18.0 °F 17% 29.88 in 10.0 mi SW 9.2 mph - N/A   Clear
7:53 PM 57.0 °F - 18.0 °F 22% 29.88 in 10.0 mi SSW 8.1 mph - N/A   Clear
8:53 PM 53.1 °F - 19.0 °F 26% 29.88 in 10.0 mi SSW 6.9 mph - N/A   Clear
9:53 PM 53.1 °F - 19.9 °F 27% 29.87 in 10.0 mi South 8.1 mph - N/A   Clear
10:53 PM 51.1 °F - 19.9 °F 29% 29.85 in 10.0 mi SSW 11.5 mph - N/A   Clear
11:53 PM 50.0 °F - 21.0 °F 32% 29.83 in 10.0 mi SSW 10.4 mph - N/A   Clear